星链-35094 (STARLINK-35094)

导读

STARLINK-35094是美国于2025年8月30日发射的星链系列卫星,隶属于SpaceX公司的星链星座计划。该计划旨在构建全球卫星互联网星座,为全球提供高速低延迟宽带服务。作为星链网络的组成部分,它进一步扩充了星座规模,助力提升全球网络覆盖能力,推动卫星互联网技术发展与应用落地。

Basic Information
目录编号:
65395
目录名称:
STARLINK-35094
国际标识:
2025-191S
轨道中心:
EARTH
卫星名称:
星链-35094
卫星全名:
星链-35094 (STARLINK-35094)
卫星状态:
在轨 (已飞行287 天)
发射日期:
2025-08-30 UTC
国别 :
美国 (US)
星等 :
--
Orbit Information
数据来源 国际轨道数据 AOE轨道数据
星历时间 2026-06-13T15:05:34+0800
8小时前
查看轨道信息
2026-06-13T00:00:00+0800
23小时前
查看轨道信息
半长轴 6927.634km 6927.605km
偏心率 0.0002846 0.0001715
轨道倾角 97.366° 97.378°
近地点辐角 93.341° 62.258°
升交点赤经 34.867° 34.271°
平近点角 266.815° 131.366°
近地点 547.525km 548.279km
远地点 551.469km 550.657km
周期 95.639分钟 95.639分钟
每日圈数 15.056548 15.056642
Detailed Information
固有亮度:
5
最大亮度:
2.5
卫星平台:
Starlink V1.0
覆盖范围:
全球
运营商:
太空探索技术公司
运营商所在国:
美国
制造商(研发单位):
太空探索技术公司
制造商所在国:
美国
使用方式:
暂无
Satellite Introduction
Starlink 计划是 SpaceX 推出的全球卫星互联网项目,通过发射低轨道卫星,为全球尤其是偏远地区提供高速、低延迟的互联网服务。自 2019 年起,Starlink 已部署数千颗卫星,旨在缩小全球数字鸿沟,推动互联网普及。该项目还为军事、航空等行业提供通信支持,带来广泛经济效益。
2D Orbit Map
3D Orbit Map
Orbit Altitude Analysis Chart
Orbit Inclination Analysis Chart
Orbit Comprehensive Analysis Chart
View Comprehensive Chart